Location: West Cummington
(42.4920°N, 72.9680°W)
Time: 22:36:52
(UTC-05:00)

Cosmos 1703 Rocket - Visible Passes

Search period start: 21 January 2017 00:00
Search period end: 31 January 2017 00:00
Orbit: 605 x 635 km, 82.5° (Epoch: 21 January)

Date Brightness Start Highest point End Pass type
(mag) Time Alt. Az. Time Alt. Az. Time Alt. Az.
26 Jan 6.2 19:42:30 10° NNW 19:42:50 12° NNW 19:42:50 12° NNW visible
27 Jan 5.0 18:22:45 10° NNE 18:24:36 19° NE 18:24:36 19° NE visible
27 Jan 6.0 20:00:31 10° NNW 20:01:53 17° NW 20:01:53 17° NW visible
28 Jan 3.7 18:39:55 10° N 18:44:07 46° ENE 18:44:46 42° ESE visible
28 Jan 6.4 20:19:05 10° NW 20:21:35 15° W 20:22:14 15° W visible
29 Jan 3.4 18:57:24 10° N 19:01:47 89° E 19:06:09 10° S visible
30 Jan 5.1 17:38:33 10° NNE 17:41:10 15° ENE 17:43:46 10° ESE visible
30 Jan 4.5 19:15:08 10° NNW 19:19:20 47° W 19:23:31 10° SSW visible
